Timestamp,Temp,Chill,HIndex,Humid,Dewpt,Wind,HiWind,WindDir,Rain,RainRate,Barom,Solar,ET,UV,InsideTemp,InsideHumid
2020-02-25 00:00:00,41.2355704697987,36.1518330595737,41.2355704697987,80.3624161073825,35.6540978663283,8.69798657718121,21,271.50147390787,0,0,29.2052147651007,0,0.000075012843067086,0,69.8999999999998,36
2020-02-25 00:05:00,41.3384105960264,36.2059543403119,41.3384105960264,79,35.3246166272614,8.78145695364238,21,276.922225053388,0,0,29.2061589403973,0,0.0000756845683148184,0,69.8999999999998,36
2020-02-25 00:10:00,41.4135135135135,36.1736043610655,41.4135135135135,79,35.3976674930123,9.0472972972973,21,275.370361621464,0,0,29.2061891891892,0,0.0000788023129009934,0,69.7770270270271,36
2020-02-25 00:15:00,41.4707482993197,36.2800708517975,41.4707482993197,79,35.4533381542721,9.06122448979592,23,265.340246343721,0,0,29.2081836734693,0,0.0000801349589456455,0,69.7,36
2020-02-25 00:20:00,41.3999999999999,36.435317109063,41.3999999999999,79,35.3845232797049,8.48322147651007,23,286.043530714259,0,0,29.2070134228188,0,0.0000806139152342627,0,69.7000000000001,36
2020-02-25 00:25:00,41.3221476510068,36.5045065041725,41.3221476510068,79,35.3087980199661,8.05369127516779,21,268.354655849737,0,0,29.2073959731544,0,0.0000808638522255557,0,69.7000000000001,36
2020-02-25 00:30:00,41.2624161073825,36.3935964853439,41.2624161073825,79,35.2506982372005,9.08053691275168,26,279.627009653983,0,0,29.2079932885906,0,0.0000805662027514715,0,69.7000000000001,36
2020-02-25 00:35:00,41.1999999999999,36.0902068663653,41.1999999999999,78.6778523489933,35.0868701950681,9.00671140939597,26,276.266976971805,0,0,29.2098120805369,0,0.0000813480209886968,0,69.7000000000001,36
2020-02-25 00:40:00,41.1543624161074,36.5755628082856,41.1543624161074,78.6375838926175,35.029589355466,7.85906040268456,26,260.481653335313,0,0,29.2134026845638,0,0.0000854589031365422,0,69.7000000000001,36
2020-02-25 00:45:00,40.9805369127516,36.906235530115,40.9805369127516,79.7046979865772,35.1989636995036,6.75167785234899,21,272.793362808743,0,0,29.2134026845638,0,0.0000857872861112918,0,69.7000000000001,36
2020-02-25 00:50:00,40.6436241610738,35.9592983151154,40.6436241610738,81.241610738255,35.3513932953745,7.65771812080537,17,271.835168795441,0,0,29.2139932885906,0,0.000073543098231001,0,69.7000000000001,36
2020-02-25 00:55:00,40.371812080537,37.122470993195,40.371812080537,82.2214765100671,35.3877113782849,5.71812080536913,17,280.851618288924,0,0,29.2148120805369,0,0.000073223173100301,0,69.7000000000001,36
2020-02-25 01:00:00,40.1953020134228,35.6152846032976,40.1953020134228,83.3624161073825,35.5619830538383,7.45637583892617,19,272.309602893876,0,0,29.2138053691275,0,0.0000831749554622911,0,69.7000000000001,36
2020-02-25 01:05:00,40.0364238410596,36.0428774994552,40.0364238410596,84.6754966887417,35.8002235404855,6.52980132450331,19,267.19927683446,0,0,29.214,0,0.0000798067965553111,0,69.7410596026488,36
2020-02-25 01:10:00,39.9119205298013,36.0779476084421,39.9119205298013,85.3112582781457,35.8667624581725,5.87417218543046,19,278.640400142202,0,0,29.2120066225165,0,0.0000754762602435836,0,69.9814569536425,36
2020-02-25 01:15:00,39.7859060402685,37.049542821958,39.7859060402685,86,35.9462195146456,4.87919463087248,14,275.235419864718,0,0,29.2101879194631,0,0.0000721541915197857,0,70.2832214765099,36
2020-02-25 01:20:00,39.6999999999999,36.0751272949737,39.6999999999999,86,35.8618210212953,6.08724832214765,15,268.048959281415,0,0,29.2069932885906,0,0.000068502085612266,0,70.7026845637582,36
2020-02-25 01:25:00,39.7845637583893,34.4667322518877,39.7845637583893,85.4161073825503,35.7726624246881,8.6241610738255,24,265.306275220224,0,0,29.2069932885906,0,0.0000672090400249337,0,71.1033557046982,36
2020-02-25 01:30:00,40.004761904762,36.7058693349808,40.004761904762,84.6054421768708,35.7482731673301,6.01360544217687,24,271.086559399272,0,0,29.2060000000001,0,0.0000668594599588304,0,71.4489795918368,36
2020-02-25 01:35:00,40.163087248322,36.0475779992046,40.163087248322,84,35.7228109558964,6.58389261744966,16,273.130212573711,0,0,29.2057986577181,0,0.0000649806287898388,0,71.9026845637584,35.7919463087248
2020-02-25 01:40:00,40.2959731543624,36.714657827095,40.2959731543624,83.3221476510067,35.6483596683858,5.9261744966443,16,276.041366271184,0,0,29.2045906040269,0,0.0000619296985836803,0,72.2429530201342,35
2020-02-25 01:45:00,40.3999999999999,37.2697046535517,40.3999999999999,83,35.6529154129991,5.35570469798658,16,260.037387476487,0,0,29.2037919463087,0,0.0000581599338455402,0,72.5234899328861,35
2020-02-25 01:50:00,40.3999999999999,36.9495389922631,40.3999999999999,83,35.6529154129991,5.87919463087248,15,265.943232377347,0,0,29.2025973154363,0,0.0000547841644387472,0,72.8818791946309,35
2020-02-25 01:55:00,40.4288590604027,35.9394408714989,40.4288590604027,83,35.6811497706493,7.52348993288591,17,268.327771602863,0,0,29.2021946308725,0,0.0000534428318424372,0,73.1228187919463,35
2020-02-25 02:00:00,40.476,37.0567875995921,40.476,82.5933333333333,35.6030859945392,5.82,17,254.606362435579,0,0,29.2000000000001,0,0.0000535041266555761,0,73.4213333333334,35
2020-02-25 02:05:00,40.421476510067,38.1105524862271,40.421476510067,82.3825503355705,35.4854286298885,4.3758389261745,16,291.211966554945,0,0,29.1941812080537,0,0.0000538923034790117,0,73.5812080536915,35
2020-02-25 02:10:00,40.3999999999999,36.3297079986156,40.3999999999999,83,35.6529154129991,6.60264900662252,18,269.883667018496,0,0,29.1911986754967,0,0.0000534154109050114,0,73.7602649006622,34.5960264900662
2020-02-25 02:15:00,40.4185430463576,35.9984110200228,40.4185430463576,83,35.6710570640258,7.09271523178808,18,266.948494586992,0,0,29.1856092715233,0,0.0000544075642832054,0,73.7999999999999,34
2020-02-25 02:20:00,40.5,35.553619678811,40.5,82.3576158940397,35.5545822523646,8.13245033112583,19,267.295977504433,0,0,29.1824039735099,0,0.0000560826767414413,0,73.7999999999999,34
2020-02-25 02:25:00,40.503355704698,35.1492399373898,40.503355704698,82.6241610738255,35.639257075851,9.11409395973154,21,259.12237155655,0,0,29.1777986577181,0,0.0000574692019447803,0,73.7999999999999,34
2020-02-25 02:30:00,40.5,35.6092995930089,40.5,83,35.7507507453223,7.83892617449664,21,259.258342538788,0,0,29.1734026845637,0,0.0000605345519859113,0,73.6778523489935,34
2020-02-25 02:35:00,40.5,35.3101194578945,40.5,83,35.7507507453223,8.25503355704698,18,264.411504314727,0,0,29.1732013422819,0,0.0000626586404739603,0,73.5791946308726,34
2020-02-25 02:40:00,40.503355704698,35.1056075615632,40.503355704698,83,35.754033793788,8.85906040268456,18,258.839898898072,0,0,29.1699865771812,0,0.0000647411338456211,0,73.4986577181208,34
2020-02-25 02:45:00,40.5926174496645,36.5368258103711,40.5926174496645,82.6442953020134,35.73269008115,6.60402684563758,16,258.357053747784,0,0,29.1697986577181,0,0.0000667686577249038,0,73.2986577181207,34
2020-02-25 02:50:00,40.6073825503356,35.2571260565491,40.6073825503356,82.1543624161074,35.5974494064871,9.01342281879195,20,245.217848332234,0,0,29.1705973154363,0,0.0000672631195467706,0,73.1000000000002,34
2020-02-25 02:55:00,40.5879194630873,34.9887155425154,40.5879194630873,83,35.8367666151243,9.34228187919463,21,268.866249246431,0,0,29.1774295302013,0,0.0000685329678609576,0,73.0187919463087,34
2020-02-25 03:00:00,40.3040268456376,35.0210289285186,40.3040268456376,83.6241610738255,35.7473631460765,8.36241610738255,21,268.285007303942,0,0,29.1798053691274,0,0.0000704815045494117,0,72.9583892617448,34
2020-02-25 03:05:00,39.7550335570471,35.1025108625219,39.7550335570471,85.0268456375839,35.6287018453745,7.26174496644295,20,268.366921305544,0,0,29.1778053691275,0,0.0000711837625637052,0,72.7999999999999,34
2020-02-25 03:10:00,39.3879194630873,34.7999627227071,39.3879194630873,86.0536912751678,35.5708533283912,7.48993288590604,17,269.594700118867,0,0,29.1829932885906,0,0.0000680610171623113,0,72.7583892617451,34
2020-02-25 03:15:00,39.2266666666665,36.2422367101619,39.2266666666665,87,35.6879673046553,4.96,17,269.952311739384,0,0,29.1846000000001,0,0.0000658122478536708,0,72.6000000000002,34
2020-02-25 03:20:00,39.0939597315436,36.4739049939989,39.0939597315436,87,35.5574099367374,4.77181208053691,12,260.330842822318,0,0,29.1809865771812,0,0.0000622594922655801,0,72.6000000000002,34
2020-02-25 03:25:00,38.9145695364238,34.3178995484653,38.9145695364238,87,35.3809244836571,7.01986754966887,17,261.528919124558,0,0,29.17859602649,0,0.0000601066211872846,0,72.5192052980132,34
2020-02-25 03:30:00,38.7814569536424,35.0369795569888,38.7814569536424,87,35.2499665701193,5.72185430463576,17,261.79827688701,0,0,29.1788145695364,0,0.000059601628048456,0,72.3999999999998,34.205298013245
2020-02-25 03:35:00,38.6999999999999,35.4355501673681,38.6999999999999,87,35.1698278308934,5.22147651006711,14,235.575907789489,0,0,29.1773959731544,0,0.000058273304083354,0,72.3999999999998,35
2020-02-25 03:40:00,38.6966442953019,35.7039485263135,38.6966442953019,87,35.1665264190788,4.73825503355705,11,245.938553306181,0,0,29.1774026845637,0,0.0000563807348673564,0,72.401342281879,35
2020-02-25 03:45:00,38.6932885906039,35.7283320048426,38.6932885906039,87,35.1632250072641,5.06711409395973,13,253.389512222964,0,0,29.1769932885906,0,0.0000554069449003099,0,72.6000000000002,35
2020-02-25 03:50:00,38.6778523489933,35.7622449808663,38.6778523489933,87.3758389261745,35.2560935313808,4.86577181208054,13,269.042501373069,0,0,29.1735906040268,0,0.0000516856291783944,0,72.7221476510066,35
2020-02-25 03:55:00,38.6912751677851,36.6665809722345,38.6912751677851,87.6577181208054,35.3503567439382,4.12080536912752,14,243.57300334621,0,0,29.170389261745,0,0.0000472784599978285,0,72.8818791946309,35
2020-02-25 04:00:00,38.7208053691275,34.8133982907834,38.7208053691275,87.489932885906,35.3312019402622,6,15,246.282577987903,0,0,29.1692013422819,0,0.000041768935624123,0,73.0208053691276,34.3892617449664
2020-02-25 04:05:00,38.8006711409397,36.4624283363764,38.8006711409397,87.8791946308725,35.5217939345668,4.22147651006711,15,250.249502909523,0,0,29.1693959731544,0,0.0000392035311096742,0,73.1000000000002,34
2020-02-25 04:10:00,38.85,37.857522008057,38.85,87,35.3174002033612,3.25,13,290,0,0,29.17,0,0.0000356288730604233,0,73.1,34
2020-02-25 04:20:00,38.986301369863,37.6439595091885,38.986301369863,87,35.4514949951697,3.24657534246575,12,269.855852215453,0,0,29.165,0,0.0000347442274402875,0,73.5,34
2020-02-25 04:25:00,38.993288590604,36.2957968254597,38.993288590604,87,35.4583690906135,4.67114093959732,12,254.584607612071,0,0,29.1619865771812,0,0.0000326429856792109,0,73.5,34
2020-02-25 04:30:00,39.1073825503355,35.7984952436185,39.1073825503355,87,35.5706153667593,5.4496644295302,14,268.312714178301,0,0,29.160389261745,0,0.0000320340505855701,0,73.5,34
2020-02-25 04:35:00,39.2503311258279,35.6728106723845,39.2503311258279,86.1788079470199,35.4720969270743,5.74834437086093,14,247.975387678459,0,0,29.1596026490066,0,0.00003221888733091,0,73.5,34
2020-02-25 04:40:00,39.4198675496689,35.8344841421703,39.4198675496689,86,35.5866022410029,5.65562913907285,14,252.036569557755,0,0,29.1586026490067,0,0.0000340631239557111,0,73.4589403973508,34
2020-02-25 04:45:00,39.5816326530613,36.9464819040606,39.5816326530613,85.9047619047619,35.717465024271,4.66666666666667,14,250.992384680494,0,0,29.1549795918367,0,0.000034763066881715,0,73.2999999999999,34
2020-02-25 04:50:00,39.66644295302,36.167759717183,39.66644295302,85,35.5340782700682,5.73825503355705,15,254.814005329087,0,0,29.1505838926175,0,0.000034872558784398,0,73.2999999999999,34
2020-02-25 04:55:00,39.7516778523491,36.2780324380752,39.7516778523491,85,35.6177032291809,5.9261744966443,17,263.480988397782,0,0,29.1492013422819,0,0.000037269726706098,0,73.2181208053693,34
2020-02-25 05:00:00,39.8000000000001,37.1200278330343,39.8000000000001,84.1208053691275,35.4030823055718,4.61073825503356,17,265.297624817984,0,0,29.1487852348994,0,0.000037305078913408,0,73.1000000000002,34
2020-02-25 05:05:00,39.8000000000001,36.5374753135691,39.8000000000001,84,35.3670781466207,5.47297297297297,12,259.579665486854,0,0,29.1479932432433,0,0.0000402277279351764,0,73.1000000000002,34
2020-02-25 05:10:00,39.8000000000001,37.5558610323942,39.8000000000001,84,35.3670781466207,4.28187919463087,12,255.603513540808,0,0,29.1461879194632,0,0.0000419135711398589,0,73.0590604026846,34
2020-02-25 05:15:00,39.7932885906041,37.9116854599034,39.7932885906041,84,35.3605026066929,3.97315436241611,11,251.574053367067,0,0,29.1432013422818,0,0.0000414238115914644,0,73,34
2020-02-25 05:20:00,39.7201342281878,36.5527476310239,39.7201342281878,84,35.2888292214792,5.24832214765101,18,249.873987126554,0,0,29.1397919463087,0,0.000041852440550419,0,73,34
2020-02-25 05:25:00,39.6999999999999,37.9210312662957,39.6999999999999,84,35.2691026016956,3.91275167785235,18,249.97622364283,0,0,29.1380067114093,0,0.000042239458231452,0,73,34
2020-02-25 05:30:00,39.6965986394557,35.5554507967221,39.6965986394557,84,35.2657700846008,6.60544217687075,15,265.497442099702,0,0,29.136224489796,0,0.0000426483145197064,0,73,34
2020-02-25 05:35:00,39.7275167785235,35.437918944563,39.7275167785235,84,35.2960623153999,6.7986577181208,16,262.657181518069,0,0,29.1345771812081,0,0.0000435253995638856,0,73,34
2020-02-25 05:40:00,39.8154362416108,36.0035053410651,39.8154362416108,84,35.3822018178096,5.96644295302013,16,255.439894722668,0,0,29.132389261745,0,0.0000444473593568309,0,73,34
2020-02-25 05:45:00,39.8999999999999,36.4408884560347,39.8999999999999,83.6953642384106,35.3732598368538,5.43046357615894,16,264.666319271531,0,0,29.13059602649,0,0.0000467299678626864,0,73,34
2020-02-25 05:50:00,39.9677852348993,36.3995724267172,39.9677852348993,83,35.2300509945602,5.98657718120805,15,257.440804564105,0,0,29.1287852348993,0,0.0000471028473679866,0,73.0208053691276,34
2020-02-25 05:55:00,40,36.9097343418529,40,83,35.2615692031838,5.20805369127517,15,264.445434636384,0,0,29.1276040268456,0,0.0000497116719495231,0,73.1000000000002,34
2020-02-25 06:00:00,40.0114093959732,38.0713613311612,40.0114093959732,83,35.2727318463863,4.03355704697987,14,252.063539310503,0,0,29.1284093959731,0,0.0000503169733389804,0,73.1000000000002,34
2020-02-25 06:05:00,40.0867549668875,36.6060720099322,40.0867549668875,83,35.3464479069894,5.54304635761589,12,267.249039655851,0,0,29.1293973509934,0,0.0000493801905131496,0,73.2602649006622,34
2020-02-25 06:10:00,40.1248322147652,34.8773155414826,40.1248322147652,83,35.3837015311443,8.30872483221476,19,250.152338977105,0,0,29.1334161073826,0,0.0000502608128027527,0,73.2999999999999,34
2020-02-25 06:15:00,39.8791946308725,36.0644732592144,39.8791946308725,83.6711409395973,35.3455184577724,6.2751677852349,19,263.408862713731,0,0,29.1364026845638,0,0.0000530601310530571,0,73.2999999999999,34
2020-02-25 06:20:00,39.2912751677853,34.4315319619547,39.2912751677853,84.4765100671141,35.0102094954263,7.71812080536913,17,258.018508405786,0,0,29.139,0,0.0000536992736820982,0,73.2999999999999,34
2020-02-25 06:25:00,38.6597315436241,34.679703840226,38.6597315436241,85.4496644295302,34.6782120286204,6.45637583892617,19,260.177133339277,0,0,29.1369798657719,0,0.0000548975286632613,0,73.2999999999999,34
2020-02-25 06:30:00,38.244966442953,34.8444873393352,38.244966442953,86.5973154362416,34.6053716486792,5.28859060402685,19,249.282400958095,0,0,29.1343959731544,0,0.0000527338940344232,0,73.2999999999999,34
2020-02-25 06:35:00,38.0114093959731,33.6393888100653,38.0114093959731,87.744966442953,34.70589218913,6.42953020134228,16,238.91932924472,0,0,29.1328120805369,0,0.0000497309959261534,0,73.2986577181207,34
2020-02-25 06:40:00,37.8979865771812,34.0543745062072,37.8979865771812,88.2013422818792,34.7243785814443,6.09395973154362,18,228.424569200748,0,0,29.1316040268456,0,0.0000479651444131988,0,73.1000000000002,34
2020-02-25 06:45:00,37.7718120805369,31.9601696063766,37.7718120805369,89,34.8264391917395,8.38926174496644,18,228.732309067711,0,0,29.1292147651007,0,0.0000475044012294052,0,73.1000000000002,34
2020-02-25 06:50:00,37.5039735099337,34.0366144307863,37.5039735099337,89,34.5622255349977,5.31788079470199,17,235.00098963684,0,0,29.1323907284768,0,0.0000473194114074595,0,73.1000000000002,34
2020-02-25 06:55:00,37.0754966887416,32.0122932487376,37.0754966887416,89,34.1395431335284,7,18,227.189608779479,0,0,29.133,0,0.0000472693759149984,0,73.0993377483446,34
2020-02-25 07:00:00,36.6543046357616,32.8745040254867,36.6543046357616,89,33.7240417143196,5.54304635761589,18,231.89961938265,0,0,29.1333973509933,0,0.0000485235572487461,0,73,34
2020-02-25 07:05:00,36.3261744966444,31.9533831049073,36.3261744966444,89.7651006711409,33.6136361711086,5.81879194630872,18,225.261849250042,0,0,29.1317986577181,0,0.0000483592359146363,0,73,34
2020-02-25 07:10:00,36.1959731543623,32.1239500461935,36.1959731543623,90,33.5505412980239,5.56375838926174,11,223.719494059529,0,0,29.1299932885906,0,0.0000443355077543991,0,73,34
2020-02-25 07:15:00,36.0798657718121,32.1352654970071,36.0798657718121,90.3691275167785,33.5376361095152,5.41610738255034,14,232.948827930141,0,0,29.1257919463087,0,0.0000416184201390695,0,72.8375838926174,34
2020-02-25 07:20:00,36.013422818792,32.3461157984681,36.013422818792,91,33.6459092641634,5.04026845637584,14,220.746033530707,0,0,29.122389261745,1.3758389261745,0.0000378012086687612,0,72.7999999999999,34
2020-02-25 07:25:00,36.0208053691275,31.8375778097693,36.0208053691275,91,33.6532110878628,5.69127516778523,12,224.986251731227,0,0,29.1197986577181,5.84563758389262,0.0000317655879209186,0,72.7999999999999,34
2020-02-25 07:30:00,36,35.0198260718044,36,91,33.6326332210738,2.63087248322148,12,213.761747497546,0,0,29.1192080536913,8.91946308724832,0.0000303637427578735,0,72.7999999999999,34
2020-02-25 07:35:00,35.9154362416107,33.5939772270688,35.9154362416107,91,33.5489939372746,3.97986577181208,10,229.037934437276,0,0,29.1208053691275,11.7718120805369,0.0000289304947385237,0,72.7999999999999,34
2020-02-25 07:40:00,35.9,35.2871589653621,35.9,91,33.533726448962,2.29530201342282,10,237.314123072528,0,0,29.123610738255,13.3154362416107,0.00002786497762309,0,72.7999999999999,34
2020-02-25 07:45:00,35.9,35.4380628408344,35.9,91,33.533726448962,1.73154362416107,9,241.318826207983,0,0,29.1270134228188,11.7315436241611,0.0000267307984461567,0,72.7999999999999,34
2020-02-25 07:50:00,35.9013422818792,35.0378820829387,35.9013422818792,91.0201342281879,33.5405500336663,2.65771812080537,6,241.91924323118,0,0,29.1283892617449,7.7248322147651,0,0,72.7999999999999,34
2020-02-25 07:55:00,36.0423841059603,33.9707535665204,36.0423841059603,92,33.9476159639502,3.44370860927152,9,214.974274454905,0,0,29.1279933774834,7.17218543046358,0.0000324186000395997,0,72.7999999999999,34
2020-02-25 08:00:00,36.1437086092714,33.2688196604056,36.1437086092714,92,34.0479598692038,4.37748344370861,11,223.295839898102,0,0,29.1285960264901,10.0397350993377,0.0000401498857196206,0,72.7999999999999,34
2020-02-25 08:05:00,36.2821192052981,33.0060351135458,36.2821192052981,92,34.1850305904004,4.70198675496689,11,219.423091122517,0,0,29.1305960264901,17.5761589403974,0.0000443137239538968,0,72.9205298013245,34
2020-02-25 08:10:00,36.4295302013423,33.765245850133,36.4295302013423,92,34.3310141059408,4.11409395973154,11,214.549972004339,0,0,29.1300000000001,25.4496644295302,0.0000461040611982926,0,73,34
2020-02-25 08:15:00,36.5543624161074,33.4294558945167,36.5543624161074,92,34.4546371140064,4.58389261744966,8,224.348052633869,0,0,29.130201342282,34.7718120805369,0.0000467069734843973,0,73.0208053691276,34
2020-02-25 08:20:00,36.6483221476509,34.6348192883024,36.6483221476509,92,34.5476864600266,3.68456375838926,8,212.579309977859,0,0,29.1288053691276,47.0671140939597,0.0000480743410480712,0,73.1000000000002,34
2020-02-25 08:25:00,36.7832214765102,32.8664795338435,36.7832214765102,92,34.6812784045565,5.48322147651007,11,222.346322822304,0,0,29.1275973154363,34.1744966442953,0.0000493607753470414,0,73.141610738255,34
2020-02-25 08:30:00,36.7691275167786,34.6556875861534,36.7691275167786,92,34.667321049226,3.78523489932886,11,214.764351822814,0,0,29.1239865771811,34.3825503355705,0.0000523948049137112,0,73.2999999999999,34
2020-02-25 08:35:00,36.7798657718122,34.1811045901502,36.7798657718122,92,34.6779552247159,4.16107382550336,9,219.431231336371,0,0,29.1201946308725,63.1073825503356,0.000054814440772057,0.355704697986577,73.2999999999999,34
2020-02-25 08:40:00,36.8342281879194,34.7575489955923,36.8342281879194,92,34.7317906620052,3.60402684563758,11,222.302715183287,0,0,29.1177852348993,66.5570469798658,0.0000575240685479156,0.668456375838926,73.3416107382551,34
2020-02-25 08:45:00,36.9523489932886,34.3162382069967,36.9523489932886,92,34.8487662132461,4.14765100671141,11,227.846812793141,0,0,29.1131879194631,48.248322147651,0.0000606234805396983,0.108053691275168,73.5,34
2020-02-25 08:50:00,37.0671140939598,34.1252347633105,37.0671140939598,92,34.9624183040194,4.45637583892617,11,216.882442624633,0,0,29.1129932885906,155.718120805369,0.0000626728027639012,0.814765100671141,73.5,34.4093959731544
2020-02-25 08:55:00,37.2463087248323,34.017565851245,37.2463087248323,92,35.1398744730011,5.12080536912752,13,239.629291500083,0,0,29.1095906040269,149.261744966443,0.0000683639122301601,0.95771812080537,73.5,35
2020-02-25 09:00:00,37.420945945946,33.6199939595883,37.420945945946,92,35.3128167617455,5.61486486486486,13,268.276442924326,0,0,29.1072027027027,160.148648648649,0.0000749802648433376,0.831081081081081,73.5,35
2020-02-25 09:05:00,37.6625,34.491162884516,37.6625,92,35.5520252639339,4.85526315789474,12,256.82376962177,0,0,29.1066052631579,129.671052631579,0.0000825214204099185,0.744078947368421,73.5,35
2020-02-25 09:10:00,37.9675496688743,35.3954574288479,37.9675496688743,92,35.8541110277677,4.31788079470199,11,249.741259213011,0,0,29.1056026490066,213.026490066225,0.0000894701270332396,0.88609271523179,73.5,35
2020-02-25 09:15:00,38.3245033112583,36.0703776168914,38.3245033112583,91.4900662251656,36.0668531308381,4.03311258278146,11,278.971304301454,0,0,29.1083907284768,234.311258278146,0.0000997263507457942,0.853642384105961,73.5,35
2020-02-25 09:20:00,38.7469798657718,36.229215144628,38.7469798657718,91.0536912751678,36.3643183160217,4.47651006711409,11,263.711087384728,0,0,29.11,120.724832214765,0.000111862509423329,0.931543624161076,73.5,35
2020-02-25 09:25:00,39.0195945945947,35.6110184846885,39.0195945945947,90.4256756756757,36.4585238653025,5.26351351351351,11,281.887649223669,0,0,29.1102094594595,131.783783783784,0.000120399467650095,0.796621621621622,73.5,35
2020-02-25 09:30:00,39.2873333333333,36.3467999428232,39.2873333333333,89.6266666666667,36.4984804136575,4.98666666666667,13,284.816175613001,0,0,29.1113933333334,156.78,0.000129122381251976,0.965333333333333,73.6000000000002,35
2020-02-25 09:35:00,39.5852348993288,35.80982371457,39.5852348993288,88.8187919463087,36.5634388082399,5.88590604026846,13,267.078508246799,0,0,29.1091879194631,183.48322147651,0.000138214633989189,0.848993288590604,73.6000000000002,35
2020-02-25 09:40:00,39.9436241610739,37.1108827697052,39.9436241610739,87.6711409395973,36.5873330444004,4.86577181208054,12,284.371976844988,0,0,29.1085906040269,261.812080536913,0.000148361972623591,0.859060402684565,73.6818791946308,35
2020-02-25 09:45:00,40.2912751677852,36.9628889301142,40.2912751677852,86.3557046979866,36.5467363041432,5.42281879194631,12,259.212890023062,0,0,29.1075906040269,160.684563758389,0.000164707840681823,0.832885906040269,73.7999999999999,35
2020-02-25 09:50:00,40.4751677852349,37.156818813463,40.4751677852349,84.9328859060403,36.3073193960862,5.69798657718121,15,288.584059614123,0,0,29.1053959731544,106.536912751678,0.000170748066680123,0.836912751677854,73.7999999999999,35
2020-02-25 09:55:00,40.5140939597316,37.2725870664477,40.5140939597316,83.8255033557047,36.0139746563849,5.40939597315436,15,282.805681087248,0,0,29.1057986577182,151.275167785235,0.000173933757384331,0.869127516778524,73.7999999999999,35